C/2008 E3 ( Garradd )

Japanese version
Home page
Total 6,336 html files since Dec. 4, 1995
Updated on May 25, 2008

---------------------------------------------------------------------

* Profile

Discovery Date March 5, 2008
Magnitude 17.8 mag
Discoverer G. J. Garradd (Siding Spring)

* Orbital Elements

Epoch 2008 Aug. 2.0 TT = JDT 2454680.5
T 2008 Aug. 2.11797 TT                                  MPC
q   5.5308557            (2000.0)            P               Q
z  +0.0003735      Peri.  218.08206     +0.05819225     -0.36375944
 +/-0.0000493      Node   105.67425     -0.49818702     +0.79642548
e   0.9979340      Incl.  105.07632     -0.86511465     -0.48309992

* Finding Charts

* Magnitudes Graph

        m1 = 6.5 + 5 log d + 10.0 log r

---------------------------------------------------------------------

The orbital elements are published on M.P.E.C. 2008-K06.
The charts are made with StellaNavigator Ver.8 (AstroArts).
The magnitudes graphs are made with Comet for Windows.

---------------------------------------------------------------------

Copyright(C) 1995-2008 Seiichi Yoshida (comet@aerith.net). All rights reserved.